Terminal Aerodrome Forecast
Issued by NWS

Home | Current Version | Previous Version | Text Only | Print | Product List | Glossary Off
Versions: 1 2 3 4 5 6 7 8 9 10 11 12 13 14 15 16 17 18 19

000
FTUS43 KMPX 240520
TAFRWF
TAF
KRWF 240520Z 2406/2506 12013KT P6SM OVC010
     FM240800 13010KT 6SM BR OVC007
     FM241000 13010KT 5SM BR OVC004
     FM241600 14012KT P6SM BKN008 OVC014
     FM241800 15014G22KT P6SM VCSH SCT020 BKN035
     FM242000 16017G25KT P6SM VCTS SCT025CB OVC040
      TEMPO 2502/2506 2SM TSRA OVC015CB=

USA.gov is the U.S. government's official web portal to all federal, state and local government web resources and services.